Change the Weather History Date:

Saturday, October 6, 2012

  Actual Average (KLBF) Record (KLBF)
Temperature  
Mean Temperature 33 °F 53 °F  
Max Temperature 43 °F 69 °F 91 °F (1993)
Min Temperature 23 °F 37 °F 14 °F (1952)
Degree Days  
Heating Degree Days 32 12  
Month to date heating degree days 67  
Since 1 July heating degree days 238  
Cooling Degree Days 0 0  
Month to date cooling degree days 0  
Year to date cooling degree days 765  
Moisture  
Dew Point 21 °F    
Average Humidity 64    
Maximum Humidity 91    
Minimum Humidity 35    
Precipitation  
Precipitation 0.00 in 0.05 in 1.13 in (1976)
Month to date precipitation 0.33  
Year to date precipitation 17.96  
Snow  
Snow 0.00 in 0.00 in 0.90 in (2012)
Month to date snowfall 0.2  
Since 1 July snowfall 0.4  
Since 1 September snowfall 0.4  
Snow Depth -    
Sea Level Pressure  
Sea Level Pressure 30.34 in    
Wind  
Wind Speed 5 mph (NW)    
Max Wind Speed 13 mph    
Max Gust Speed 18 mph    
Visibility 10 miles    
Events      
T = Trace of Precipitation, MM = Missing Value Source: NWS Daily Summary

Daily Weather History Graph

Daily Weather History Graph

Search for Another Location

Airport or City:

Trip Planner

Search our weather history database for the weather conditions in past years. The results will help you decide how hot, cold, wet, or windy it might be!

Date:

Astronomy

Oct. 06, 2012 Rise Set
Actual Time 7:45 AM CDT 7:14 PM CDT
Civil Twilight 7:17 AM CDT 7:42 PM CDT
Nautical Twilight 6:45 AM CDT 8:14 PM CDT
Astronomical Twilight 6:12 AM CDT 8:47 PM CDT
Moon 11:27 PM CDT (10/6) 1:45 PM CDT (10/6)
Length of Visible Light 12h 25m
Length of Day
11h 29m
Waning Gibbous, 65% of the Moon is Illuminated
Oct 6
Waning Gibbous
Oct 8
Last Quarter
Oct 15
New
Oct 21
First Quarter
Oct 29
Full

Hourly Weather History & Observations

Time (CDT) Temp. Windchill Dew Point Humidity Pressure Visibility Wind Dir Wind Speed Gust Speed Precip Events Conditions
12:15 AM 31.1 °F 27.7 °F 20.1 °F 64% 30.34 in 10.0 mi WNW 3.5 mph - N/A   Clear
12:35 AM 30.2 °F 26.7 °F 19.9 °F 66% 30.33 in 10.0 mi WSW 3.5 mph - N/A   Clear
12:55 AM 26.2 °F 19.6 °F 18.3 °F 72% 30.33 in 10.0 mi WSW 5.8 mph - N/A   Clear
1:15 AM 26.6 °F 22.6 °F 18.7 °F 72% 30.33 in 10.0 mi West 3.5 mph - N/A   Clear
1:35 AM 26.4 °F 22.4 °F 19.0 °F 74% 30.34 in 10.0 mi WNW 3.5 mph - N/A   Clear
1:55 AM 25.3 °F 21.1 °F 18.9 °F 76% 30.34 in 10.0 mi WNW 3.5 mph - N/A   Clear
2:15 AM 24.4 °F 20.1 °F 18.7 °F 79% 30.35 in 10.0 mi WNW 3.5 mph - N/A   Clear
2:35 AM 24.6 °F 17.7 °F 19.6 °F 81% 30.35 in 10.0 mi West 5.8 mph - N/A   Clear
2:55 AM 24.3 °F 16.3 °F 19.8 °F 83% 30.36 in 10.0 mi NW 6.9 mph - N/A   Clear
3:15 AM 24.6 °F 18.8 °F 19.8 °F 82% 30.37 in 10.0 mi WNW 4.6 mph - N/A   Clear
3:35 AM 23.7 °F 19.3 °F 19.6 °F 84% 30.37 in 10.0 mi WNW 3.5 mph - N/A   Clear
3:55 AM 24.6 °F 20.3 °F 20.3 °F 84% 30.35 in 10.0 mi NW 3.5 mph - N/A   Clear
4:15 AM 24.8 °F 17.9 °F 21.0 °F 86% 30.34 in 10.0 mi NW 5.8 mph - N/A   Clear
4:35 AM 25.7 °F - 21.2 °F 83% 30.34 in 10.0 mi Calm Calm - N/A   Scattered Clouds
4:55 AM 26.2 °F 20.7 °F 21.9 °F 84% 30.34 in 10.0 mi WNW 4.6 mph - N/A   Scattered Clouds
5:15 AM 26.6 °F 22.6 °F 22.1 °F 83% 30.33 in 10.0 mi WNW 3.5 mph - N/A   Scattered Clouds
5:35 AM 26.2 °F - 22.3 °F 85% 30.33 in 10.0 mi Calm Calm - N/A   Clear
5:55 AM 29.5 °F 23.4 °F 23.0 °F 77% 30.32 in 10.0 mi North 5.8 mph - N/A   Mostly Cloudy
6:15 AM 30.2 °F 25.4 °F 22.3 °F 72% 30.32 in 10.0 mi NNE 4.6 mph - N/A   Overcast
6:35 AM 30.0 °F 25.2 °F 22.1 °F 72% 30.32 in 10.0 mi ENE 4.6 mph - N/A   Overcast
6:55 AM 30.0 °F 26.5 °F 21.7 °F 71% 30.33 in 10.0 mi NE 3.5 mph - N/A   Overcast
7:15 AM 30.4 °F 26.9 °F 21.2 °F 69% 30.34 in 10.0 mi NNE 3.5 mph - N/A   Overcast
7:35 AM 30.2 °F 23.4 °F 20.7 °F 68% 30.34 in 10.0 mi North 6.9 mph - N/A   Overcast
7:55 AM 30.0 °F 23.2 °F 20.7 °F 68% 30.35 in 10.0 mi North 6.9 mph - N/A   Overcast
8:15 AM 30.0 °F 25.2 °F 20.7 °F 68% 30.35 in 10.0 mi North 4.6 mph - N/A   Overcast
8:35 AM 30.6 °F 25.8 °F 20.3 °F 66% 30.36 in 10.0 mi NNE 4.6 mph - N/A   Overcast
8:55 AM 30.9 °F - 20.8 °F 66% 30.38 in 10.0 mi Calm Calm - N/A   Overcast
9:15 AM 31.1 °F - 20.3 °F 64% 30.39 in 10.0 mi Calm Calm - N/A   Overcast
9:35 AM 31.6 °F - 20.1 °F 62% 30.40 in 10.0 mi Calm Calm - N/A   Overcast
9:55 AM 32.0 °F - 19.8 °F 61% 30.40 in 10.0 mi Calm Calm - N/A   Overcast
10:15 AM 32.4 °F - 20.1 °F 61% 30.41 in 10.0 mi Calm Calm - N/A   Overcast
10:35 AM 33.3 °F 28.9 °F 20.5 °F 59% 30.40 in 10.0 mi West 4.6 mph - N/A   Overcast
10:55 AM 33.4 °F 29.1 °F 19.9 °F 58% 30.40 in 10.0 mi WNW 4.6 mph - N/A   Overcast
11:15 AM 34.3 °F 29.2 °F 19.6 °F 55% 30.40 in 10.0 mi NNW 5.8 mph - N/A   Overcast
11:35 AM 34.7 °F 31.8 °F 19.2 °F 53% 30.39 in 10.0 mi NNW 3.5 mph - N/A   Overcast
11:55 AM 35.8 °F 30.1 °F 19.4 °F 51% 30.39 in 10.0 mi North 6.9 mph - N/A   Overcast
12:15 PM 36.0 °F 32.1 °F 19.4 °F 51% 30.39 in 10.0 mi North 4.6 mph - N/A   Overcast
12:35 PM 36.5 °F 31.8 °F 19.0 °F 49% 30.39 in 10.0 mi NNE 5.8 mph - N/A   Overcast
1:15 PM 37.4 °F 34.9 °F 18.7 °F 47% 30.38 in 10.0 mi North 3.5 mph - N/A   Overcast
1:35 PM 39.6 °F 36.3 °F 18.5 °F 43% 30.37 in 10.0 mi North 4.6 mph - N/A   Scattered Clouds
1:55 PM 40.3 °F 35.5 °F 18.0 °F 41% 30.36 in 10.0 mi NNW 6.9 mph - N/A   Clear
2:15 PM 40.5 °F 37.3 °F 18.0 °F 40% 30.35 in 10.0 mi North 4.6 mph - N/A   Clear
2:35 PM 41.9 °F 39.0 °F 16.9 °F 36% 30.35 in 10.0 mi NNW 4.6 mph - N/A   Clear
2:55 PM 42.6 °F 39.0 °F 16.3 °F 35% 30.34 in 10.0 mi North 5.8 mph - N/A   Mostly Cloudy
3:15 PM 41.9 °F 36.9 °F 15.8 °F 35% 30.34 in 10.0 mi NNW 8.1 mph - N/A   Overcast
3:35 PM 41.7 °F 39.8 °F 16.2 °F 36% 30.34 in 10.0 mi NW 3.5 mph - N/A   Overcast
3:55 PM 42.4 °F 38.1 °F 16.3 °F 35% 30.34 in 10.0 mi NW 6.9 mph - N/A   Mostly Cloudy
4:15 PM 42.3 °F 37.9 °F 16.5 °F 35% 30.33 in 10.0 mi NNW 6.9 mph - N/A   Mostly Cloudy
4:35 PM 43.2 °F 37.4 °F 16.9 °F 35% 30.33 in 10.0 mi WNW 10.4 mph 17.3 mph N/A   Overcast
4:55 PM 43.5 °F 40.1 °F 17.2 °F 35% 30.32 in 10.0 mi NW 5.8 mph - N/A   Overcast
5:15 PM 43.0 °F 38.2 °F 16.9 °F 35% 30.32 in 10.0 mi NNW 8.1 mph - N/A   Mostly Cloudy
5:35 PM 42.4 °F 38.8 °F 16.7 °F 35% 30.32 in 10.0 mi NW 5.8 mph - N/A   Overcast
6:15 PM 42.8 °F 38.0 °F 17.4 °F 36% 30.31 in 10.0 mi WNW 8.1 mph - N/A   Overcast
6:35 PM 42.3 °F 35.9 °F 18.0 °F 38% 30.31 in 10.0 mi West 11.5 mph - N/A   Overcast
6:55 PM 41.2 °F 34.5 °F 23.9 °F 50% 30.31 in 10.0 mi West 11.5 mph - N/A   Mostly Cloudy
7:15 PM 40.3 °F 33.0 °F 25.3 °F 55% 30.31 in 10.0 mi West 12.7 mph 17.3 mph N/A   Mostly Cloudy
7:35 PM 39.2 °F 31.6 °F 26.8 °F 61% 30.31 in 10.0 mi West 12.7 mph 18.4 mph N/A   Overcast
7:55 PM 37.8 °F 31.3 °F 27.3 °F 66% 30.31 in 10.0 mi WSW 9.2 mph - N/A   Mostly Cloudy
8:15 PM 36.5 °F 30.3 °F 27.3 °F 69% 30.31 in 10.0 mi WSW 8.1 mph - N/A   Scattered Clouds
8:35 PM 35.4 °F 28.4 °F 27.0 °F 71% 30.31 in 10.0 mi WSW 9.2 mph - N/A   Scattered Clouds
8:55 PM 34.7 °F 26.9 °F 26.8 °F 73% 30.31 in 10.0 mi West 10.4 mph - N/A   Clear
9:15 PM 33.8 °F 26.4 °F 27.0 °F 76% 30.31 in 10.0 mi WSW 9.2 mph - N/A   Clear
9:35 PM 33.3 °F 25.1 °F 27.3 °F 79% 30.31 in 10.0 mi West 10.4 mph - N/A   Clear
9:55 PM 32.4 °F 24.6 °F 27.1 °F 81% 30.31 in 10.0 mi West 9.2 mph - N/A   Clear
10:15 PM 30.7 °F 24.1 °F 26.1 °F 83% 30.31 in 10.0 mi West 6.9 mph - N/A   Clear
10:35 PM 31.1 °F 23.1 °F 26.6 °F 83% 30.31 in 10.0 mi WSW 9.2 mph - N/A   Clear
10:55 PM 29.8 °F - 25.7 °F 85% 30.31 in 10.0 mi Calm Calm - N/A   Clear
11:15 PM 28.2 °F 24.4 °F 25.2 °F 88% 30.31 in 10.0 mi NW 3.5 mph - N/A   Clear
11:35 PM 26.6 °F 22.6 °F 24.1 °F 90% 30.29 in 10.0 mi WNW 3.5 mph - N/A   Clear
11:55 PM 26.4 °F 18.9 °F 24.1 °F 91% 30.29 in 10.0 mi West 6.9 mph - N/A   Clear